Middlebury State AP, Middlebu, VT

12:05 AM EDT on April 29, 2017 (GMT -0400)
Middlebury State AP, Middlebu

Weather History for K6B0 - March, 2014

Change the Weather History Date:

Tuesday, March 18, 2014

  Actual Average (KRUT) Record (KRUT)
Temperature  
Mean Temperature 16 °F -  
Max Temperature 34 °F 40 °F 75 °F (2012)
Min Temperature -2 °F 20 °F -3 °F (1993)
Degree Days  
Heating Degree Days 50    
Moisture  
Dew Point 1 °F    
Average Humidity 55    
Maximum Humidity 82    
Minimum Humidity 20    
Precipitation  
Precipitation 0.00 in - - ()
Sea Level Pressure  
Sea Level Pressure 30.26 in    
Wind  
Wind Speed 1 mph (SW)    
Max Wind Speed 6 mph    
Max Gust Speed -    
Visibility 10 miles    
Events      
Averages and records for this station are not official NWS values.
T = Trace of Precipitation, MM = Missing Value Source: NWS Daily Summary

Daily Weather History Graph

Daily Weather History Graph

Search for Another Location

Airport or City:

Trip Planner

Search our weather history database for the weather conditions in past years. The results will help you decide how hot, cold, wet, or windy it might be!

Date:

Astronomy

Mar. 18, 2014 Rise Set
Actual Time 6:59 AM EDT 7:02 PM EDT
Civil Twilight 6:30 AM EDT 7:31 PM EDT
Nautical Twilight 5:56 AM EDT 8:04 PM EDT
Astronomical Twilight 5:22 AM EDT 8:39 PM EDT
Moon 9:22 PM EDT (3/18) 7:42 AM EDT (3/18)
Length of Visible Light 13h 00m
Length of Day
12h 03m
Waning Gibbous, 96% of the Moon is Illuminated
Mar 18
Waning Gibbous
Mar 23
Last Quarter
Mar 30
New
Apr 7
First Quarter
Apr 15
Full

Hourly Weather History & Observations

Time (EDT) Temp. Windchill Dew Point Humidity Pressure Visibility Wind Dir Wind Speed Gust Speed Precip Events Conditions
12:15 AM 5.9 °F - -2.7 °F 68% 30.18 in 10.0 mi Calm Calm - N/A   Clear
12:35 AM 5.5 °F -3.4 °F -2.0 °F 71% 30.18 in 10.0 mi ESE 4.6 mph - N/A   Clear
12:55 AM 4.8 °F - -2.0 °F 73% 30.19 in 10.0 mi Calm Calm - N/A   Clear
1:15 AM 3.6 °F - -2.4 °F 76% 30.19 in 10.0 mi Calm Calm - N/A   Clear
1:35 AM 4.6 °F - -3.3 °F 70% 30.19 in 10.0 mi Calm Calm - N/A   Clear
1:55 AM 2.1 °F - -3.5 °F 77% 30.19 in 10.0 mi Calm Calm - N/A   Clear
2:15 AM 4.3 °F - -2.4 °F 74% 30.20 in 10.0 mi Calm Calm - N/A   Clear
2:35 AM 3.2 °F - -4.4 °F 71% 30.20 in 10.0 mi Calm Calm - N/A   Clear
2:55 AM 2.3 °F - -4.4 °F 74% 30.21 in 10.0 mi Calm Calm - N/A   Clear
3:15 AM -0.0 °F - -4.9 °F 80% 30.20 in 10.0 mi Calm Calm - N/A   Clear
3:35 AM -0.2 °F - -5.3 °F 79% 30.20 in 10.0 mi Calm Calm - N/A   Clear
3:55 AM 1.4 °F - -4.2 °F 77% 30.20 in 10.0 mi Calm Calm - N/A   Clear
4:15 AM -0.4 °F - -4.9 °F 81% 30.20 in 10.0 mi Calm Calm - N/A   Clear
4:35 AM 0.1 °F - -5.3 °F 78% 30.22 in 10.0 mi Calm Calm - N/A   Clear
4:55 AM 0.3 °F - -6.0 °F 75% 30.22 in 10.0 mi Calm Calm - N/A   Clear
5:15 AM -2.7 °F - -8.0 °F 78% 30.23 in 10.0 mi Calm Calm - N/A   Clear
5:35 AM -1.1 °F - -6.0 °F 80% 30.23 in 10.0 mi Calm Calm - N/A   Clear
5:55 AM -0.8 °F - -5.6 °F 80% 30.25 in 10.0 mi Calm Calm - N/A   Clear
6:15 AM -0.0 °F - -5.8 °F 77% 30.25 in 10.0 mi Calm Calm - N/A   Clear
6:35 AM -1.8 °F - -6.2 °F 82% 30.25 in 10.0 mi Calm Calm - N/A   Clear
6:55 AM -2.0 °F - -6.3 °F 82% 30.26 in 10.0 mi Calm Calm - N/A   Clear
7:15 AM -0.8 °F - -5.8 °F 79% 30.27 in 10.0 mi Calm Calm - N/A   Clear
7:35 AM -0.4 °F - -5.1 °F 81% 30.27 in 10.0 mi Calm Calm - N/A   Scattered Clouds
7:55 AM 1.6 °F - -5.4 °F 72% 30.27 in 10.0 mi Calm Calm - N/A   Overcast
8:15 AM 2.1 °F - -3.6 °F 77% 30.28 in 10.0 mi Calm Calm - N/A   Overcast
8:35 AM 4.5 °F - -3.3 °F 70% 30.29 in 10.0 mi Calm Calm - N/A   Overcast
8:55 AM 7.7 °F - -2.2 °F 64% 30.29 in 10.0 mi Calm Calm - N/A   Overcast
9:15 AM 11.7 °F - -1.1 °F 57% 30.30 in 10.0 mi Calm Calm - N/A   Overcast
9:35 AM 12.2 °F - -0.9 °F 56% 30.30 in 10.0 mi Calm Calm - N/A   Overcast
9:55 AM 13.8 °F - -0.8 °F 52% 30.30 in 10.0 mi Calm Calm - N/A   Overcast
10:15 AM 15.4 °F - -0.4 °F 50% 30.30 in 10.0 mi Calm Calm - N/A   Scattered Clouds
10:35 AM 16.9 °F - -1.7 °F 44% 30.30 in 10.0 mi Calm Calm - N/A   Clear
10:55 AM 18.3 °F 11.5 °F 0.1 °F 45% 30.32 in 10.0 mi WNW 4.6 mph - N/A   Clear
11:15 AM 19.8 °F - -1.8 °F 39% 30.30 in 10.0 mi Calm Calm - N/A   Clear
11:35 AM 21.2 °F - -2.2 °F 36% 30.30 in 10.0 mi Calm Calm - N/A   Clear
11:55 AM 22.5 °F 16.3 °F -1.7 °F 35% 30.29 in 10.0 mi West 4.6 mph - N/A   Clear
12:15 PM 23.4 °F - -2.9 °F 32% 30.28 in 10.0 mi Calm Calm - N/A   Clear
12:35 PM 25.0 °F 20.7 °F -0.6 °F 33% 30.28 in 10.0 mi SSW 3.5 mph - N/A   Scattered Clouds
12:55 PM 25.7 °F 21.5 °F -1.8 °F 30% 30.30 in 10.0 mi SSW 3.5 mph - N/A   Scattered Clouds
1:15 PM 26.1 °F - -0.0 °F 32% 30.31 in 10.0 mi Calm Calm - N/A   Clear
1:35 PM 27.7 °F - 0.9 °F 32% 30.31 in 10.0 mi Calm Calm - N/A   Clear
1:55 PM 28.2 °F - 0.9 °F 31% 30.30 in 10.0 mi Calm Calm - N/A   Clear
2:15 PM 28.8 °F - 0.1 °F 29% 30.30 in 10.0 mi Calm Calm - N/A   Clear
2:35 PM 29.7 °F - 2.1 °F 31% 30.27 in 10.0 mi Calm Calm - N/A   Scattered Clouds
2:55 PM 31.3 °F 25.6 °F 1.9 °F 29% 30.28 in 10.0 mi SW 5.8 mph - N/A   Scattered Clouds
3:15 PM 31.5 °F 28.1 °F 0.9 °F 27% 30.27 in 10.0 mi WNW 3.5 mph - N/A   Scattered Clouds
3:35 PM 31.8 °F 27.3 °F -0.0 °F 26% 30.28 in 10.0 mi SW 4.6 mph - N/A   Clear
3:55 PM 32.0 °F - -0.4 °F 25% 30.28 in 10.0 mi Calm Calm - N/A   Clear
4:15 PM 32.4 °F - -1.5 °F 24% 30.28 in 10.0 mi Calm Calm - N/A   Clear
4:35 PM 32.5 °F - 1.4 °F 27% 30.27 in 10.0 mi Calm Calm - N/A   Clear
4:55 PM 33.8 °F 30.8 °F -3.3 °F 20% 30.27 in 10.0 mi SSE 3.5 mph - N/A   Clear
5:15 PM 33.8 °F 29.6 °F -1.7 °F 22% 30.27 in 10.0 mi SW 4.6 mph - N/A   Clear
5:30 PM 33.8 °F 30.8 °F -3.5 °F 20% 30.28 in 10.0 mi SSW 3.5 mph - N/A   Clear
6:00 PM 33.6 °F - -4.4 °F 20% 30.27 in 10.0 mi Calm Calm - N/A   Clear
6:15 PM 33.6 °F - -4.4 °F 20% 30.27 in 10.0 mi Calm Calm - N/A   Clear
6:35 PM 33.1 °F - -2.4 °F 22% 30.27 in 10.0 mi Calm Calm - N/A   Clear
6:55 PM 30.7 °F - 8.2 °F 39% 30.27 in 10.0 mi Calm Calm - N/A   Clear
7:10 PM 29.5 °F - 7.0 °F 39% 30.27 in 10.0 mi Calm Calm - N/A   Clear
7:35 PM 27.7 °F - 13.5 °F 55% 30.27 in 10.0 mi Calm Calm - N/A   Clear
7:55 PM 26.6 °F - 16.2 °F 65% 30.27 in 10.0 mi Calm Calm - N/A   Clear
8:15 PM 25.9 °F - 16.5 °F 68% 30.27 in 10.0 mi Calm Calm - N/A   Clear
8:35 PM 25.9 °F - 14.0 °F 61% 30.27 in 10.0 mi Calm Calm - N/A   Clear
8:55 PM 24.4 °F - 16.5 °F 72% 30.27 in 10.0 mi Calm Calm - N/A   Clear
9:15 PM 24.8 °F - 11.8 °F 58% 30.28 in 10.0 mi Calm Calm - N/A   Clear
9:35 PM 23.7 °F - 12.4 °F 62% 30.28 in 10.0 mi Calm Calm - N/A   Clear
9:55 PM 23.4 °F - 10.2 °F 57% 30.28 in 10.0 mi Calm Calm - N/A   Clear
10:15 PM 22.8 °F - 12.6 °F 65% 30.27 in 10.0 mi Calm Calm - N/A   Clear
10:35 PM 21.2 °F - 11.1 °F 65% 30.27 in 10.0 mi Calm Calm - N/A   Clear
10:55 PM 21.4 °F - 9.7 °F 61% 30.27 in 10.0 mi Calm Calm - N/A   Clear
11:15 PM 19.6 °F - 12.4 °F 74% 30.27 in 10.0 mi Calm Calm - N/A   Clear
11:35 PM 19.9 °F - 13.8 °F 77% 30.27 in 10.0 mi Calm Calm - N/A   Clear
11:55 PM 19.2 °F - 12.0 °F 74% 30.28 in 10.0 mi Calm Calm - N/A   Clear